Weather in Vyaz'ma-Bryanskaya

Russia / Smolensk Oblast     55°09′43″N   34°21′46″E
temp.,
°C
wind,
m/s
gust,
m/s
humid.,
%
clouds,
%
prec.,
mm/h
press.,
hPa
HPBL,
m
11 april, sun
sun1100:00+4ssw413745 0.0 1024277
03:00+2ssw4127947 0.0 1025251
06:00+2ssw37845 0.0 1026125
09:00+7sw47655 0.0 1027279
12:00+12ssw46525 0.0 1028820
15:00+14ssw45462 0.0 10281380
18:00+14s35555 0.0 1028151
21:00+9s22680 0.0 103022
12 april, mon
mon1200:00+7sse33740 0.0 103139
03:00+6se33780 0.0 103237
06:00+4ese35830 0.0 103276
09:00+9ese5106370 0.0 1031448
12:00+12ese6844100 0.0 1029884
15:00+12ese6944100 0.0 1028982
18:00+11ese5970100 0.0 1026546
21:00+9se31088100 0.0 1027299
13 april, tue
tue1300:00+8ese3995100 0.0 1025214
03:00+7ese2596100 0.0 1024105
06:00+7se2395100 0.0 102352
09:00+10sse3483100 0.0 1023181
12:00+16s4761100 0.0 1022610
15:00+18sse4751100 0.0 10211521
18:00+16sse486285 0.4 1021251
21:00+11se387982 0.4 1021120
14 april, wed
wed1400:00+10se378364 0.0 1020114
03:00+9sse368420 0.0 1020101
06:00+8sse368492 0.0 101996
09:00+10sse31083100 0.0 1019326
12:00+15s496375 0.0 10181152
15:00+15s4762100 0.4 10171111
18:00+13ssw1176100 0.7 101721
21:00+12ne1177100 0.8 101710
15 april, thu
thu1500:00+10s2286100 0.0 101723
03:00+9ssw2293100 0.3 101732
06:00+9e1191100 0.3 101626
09:00+12sse247397 0.1 1017384
12:00+13s2370100 1.4 1017317
15:00+14ese246399 2.3 10171086
18:00+12ne477788 0.4 1017260
21:00+9ne61190100 0.4 1019502